Regional Weather Roundup
Issued by NWS

Home | Current Version | Previous Version | Text Only | Print | Product List | Glossary On
Versions: 1 2 3 4 5 6 7 8 9 10 11 12 13 14 15 16 17 18 19 20 21 22 23 24 25 26 27 28 29 30 31 32 33 34 35 36 37 38 39 40 41 42 43 44 45 46 47 48 49 50
000
ASCA42 TJSJ 291311
RWRPR
PUERTO RICO/U.S. VIRGIN ISLANDS HOURLY WEATHER ROUNDUP
NATIONAL WEATHER SERVICE SAN JUAN PR
900 AM AST MON DEC 29 2014

PRZ001-004-291400-
PUERTO RICO

CITY           SKY/WX    TMP DP  RH WIND       PRES   REMARKS
SAN JUAN LMM   MOSUNNY   79  73  83 E6        30.11R
PONCE          MOSUNNY   77  70  78 E6        30.06R
AGUADILLA      SUNNY     75  70  83 E7        30.12R
CEIBA          SUNNY     81  72  74 SE9       30.15R
$$

PRZ006-007-291400-
U.S. VIRGIN ISLANDS

CITY           SKY/WX    TMP DP  RH WIND       PRES   REMARKS
$$

HOURLY WEATHER ROUNDUP FOR THE NEWS MEDIA

CITY           SKY/WX    TMP DP  RH WIND       PRES   REMARKS
MIAMI          PTCLDY    74  72  93 S5        30.13R
ORLANDO        PTCLDY    66  64  93 S6        30.12R
NEW YORK       MOCLDY    39  23  52 N13       30.17F WCI  31
NEWARK         MOCLDY    37  23  56 N6        30.16F WCI  32
CHICAGO        MOCLDY    25  19  78 N9        30.32R WCI  15
HARTFORD       CLEAR     30  23  75 CALM      30.13R
BOSTON         MOCLDY    35  23  61 W7        30.12R WCI  29
DALLAS         MOCLDY    32  26  78 SE9       30.12S WCI  24
PHILADELPHIA   CLOUDY    40  24  53 N6        30.20S



USA.gov is the U.S. government's official web portal to all federal, state and local government web resources and services.